[[{"header":{"parameterUnit":"m.s-1","parameterCategory":1,"la1":30.2991,"la2":30.254,"lo1":-89.0895,"lo2":-89.0444,"dx":0.0017,"dy":0.0017,"nx":28,"ny":28,"refTime":"2022-11-28T15:00:00:Z","depth":0,"parameterNumber":2,"parameterNumberName":"U-component_of_WINDS"},"data":[0,0,0,0,0,0,0,0,0,0,0,0,0,0,0,0,0,0,0,0,0,0,0,0,0,0,0,0,0,0,0,0,0,0,0,0,0,0,0,0,0,0,0,0,0,0,0,0,0,0,0,0,0,0,0,0,0,0,-1.1872,-1.1873,0,-1.1913,-1.1913,-1.1914,-1.1918,-1.1918,-1.1917,-1.1917,-1.1956,-1.1957,-1.1958,0,0,0,0,0,0,0,0,0,0,0,0,0,-1.1795,-1.1797,-1.1872,-1.1873,-1.1873,-1.1913,-1.1913,-1.1914,-1.1918,-1.1918,-1.1917,-1.1917,-1.1955,-1.1957,-1.1958,0,0,0,0,0,0,0,0,0,0,0,0,0,-1.1831,-1.1797,-1.1872,-1.188,-1.1881,-1.1913,-1.1913,-1.1914,-1.1918,-1.1918,-1.1917,-1.1917,-1.1955,-1.1957,-1.1959,-1.1984,0,0,-1.1965,-1.1966,0,0,0,0,0,0,0,0,-1.1829,-1.1834,-1.1879,-1.188,-1.1881,-1.191,-1.19,-1.1937,-1.1919,-1.1904,-1.1917,-1.1916,-1.1941,-1.1944,-1.1953,-1.1985,-1.1987,-1.1965,-1.1967,-1.1967,-1.1968,0,0,0,0,0,0,0,-1.1827,-1.1832,-1.1888,-1.1879,-1.1881,-1.1881,-1.1885,-1.1907,-1.1925,-1.1905,-1.1906,-1.1911,-1.1941,-1.1951,-1.1954,-1.1988,-1.1965,-1.1967,-1.1968,-1.1969,-1.2042,-1.2043,0,0,0,0,0,0,-1.1823,-1.183,-1.1887,-1.1889,-1.1853,-1.1883,-1.1888,-1.1901,-1.1925,-1.1928,-1.1911,-1.1911,-1.1947,-1.1951,-1.1955,-1.1986,-1.1967,-1.1969,-1.1971,-1.2041,-1.2042,-1.2043,0,0,0,0,0,0,-1.1822,-1.1828,-1.1885,-1.186,-1.1867,-1.1885,-1.19,-1.1902,-1.1912,-1.1929,-1.1932,-1.1918,-1.1947,-1.1952,-1.1977,-1.1987,-1.197,-1.1972,-1.2041,-1.2042,-1.2042,-1.2047,0,0,0,0,0,0,-1.1819,-1.1828,-1.1838,-1.186,-1.1869,-1.1907,-1.19,-1.1904,-1.1916,-1.1916,-1.1936,-1.1939,-1.1947,-1.1973,-1.1979,-1.1989,-1.1974,-1.204,-1.2041,-1.2042,-1.2046,-1.2048,-1.205,0,0,0,0,0,-1.1817,-1.1837,-1.1839,-1.1845,-1.1882,-1.1908,-1.1912,-1.1922,-1.1917,-1.1927,-1.1938,-1.1939,-1.1985,-1.1976,-1.1982,-1.1993,-1.2039,-1.2041,-1.2042,-1.2045,-1.2047,-1.205,0,0,0,0,0,0,-1.1815,-1.184,-1.1842,-1.1871,-1.1887,-1.1908,-1.1922,-1.1924,-1.1942,-1.1941,-1.195,-1.1955,-1.1979,-1.1989,-1.1978,-1.2018,-1.2011,-1.2014,-1.2011,-1.2014,-1.2016,-1.2013,-1.1976,0,0,0,0,0,-1.1818,-1.1838,-1.1858,-1.1881,-1.189,-1.1904,-1.1916,-1.1921,-1.1938,-1.1945,-1.1958,-1.1974,-1.1992,-1.2003,-1.2021,-1.2047,-1.2051,-1.2058,-1.206,-1.2061,-1.2063,-1.2077,-1.2081,-1.2048,-1.2048,-1.2048,0,0,-1.1824,-1.1841,-1.1852,-1.1881,-1.1895,-1.1914,-1.191,-1.193,-1.1944,-1.1948,-1.1972,-1.1982,-1.2,-1.2025,-1.2037,-1.2034,-1.2073,-1.2063,-1.2064,-1.2066,-1.2079,-1.2082,-1.2085,-1.2049,-1.2049,-1.2049,0,0,-1.1846,-1.186,-1.1881,-1.1895,-1.1915,-1.1925,-1.193,-1.1951,-1.1958,-1.1982,-1.1985,-1.2001,-1.2032,-1.2045,-1.2055,-1.2081,-1.2082,-1.2086,-1.2096,-1.2109,-1.2112,-1.2114,-1.2123,-1.2126,-1.2088,-1.2088,-1.2088,0,-1.1851,-1.1881,-1.1891,-1.1912,-1.1924,-1.1929,-1.1949,-1.1962,-1.1986,-1.1994,-1.1991,-1.2029,-1.2042,-1.207,-1.2076,-1.2085,-1.209,-1.2084,-1.2111,-1.2113,-1.2115,-1.2124,-1.2127,-1.2088,-1.2088,-1.2088,-1.2088,0,-1.1885,-1.1906,-1.192,-1.1945,-1.1959,-1.1979,-1.1992,-1.2004,-1.2009,-1.2018,-1.2042,-1.2057,-1.2078,-1.2085,-1.2089,-1.2114,-1.2111,-1.2109,-1.2102,-1.2119,-1.2127,-1.213,-1.2089,-1.2089,-1.2089,-1.2089,0,0,-1.1907,-1.1938,-1.1943,-1.1954,-1.1977,-1.1992,-1.2012,-1.2033,-1.2043,-1.206,-1.2077,-1.2102,-1.2101,-1.2112,-1.2118,-1.213,-1.2148,-1.2126,-1.2127,-1.213,-1.2176,-1.2177,-1.2181,-1.2149,-1.215,-1.215,-1.2174,0,-1.1931,-1.1968,-1.1978,-1.2009,-1.2028,-1.2032,-1.2049,-1.2065,-1.2074,-1.209,-1.21,-1.2118,-1.2114,-1.2121,-1.2133,-1.2144,-1.2158,-1.2142,-1.2164,-1.2164,-1.2159,-1.2185,-1.2187,-1.2208,-1.2177,-1.2178,-1.2178,0,-1.1964,-1.1982,-1.2016,-1.2036,-1.2044,-1.2059,-1.2079,-1.2095,-1.2112,-1.2118,-1.2131,-1.2135,-1.2155,-1.2147,-1.2174,-1.2163,-1.2172,-1.2178,-1.2179,-1.2182,-1.2172,-1.2188,-1.2216,-1.2219,-1.2183,-1.2183,-1.2183,0,-1.1976,-1.2009,-1.2033,-1.2043,-1.2067,-1.2077,-1.2088,-1.2104,-1.2116,-1.2133,-1.214,-1.2159,-1.2169,-1.2182,-1.2191,-1.2185,-1.2217,-1.221,-1.2222,-1.2222,-1.2228,-1.2228,-1.2258,-1.2235,-1.2234,-1.2234,-1.2234,0,-1.2002,-1.2022,-1.2039,-1.2054,-1.2076,-1.2086,-1.2108,-1.2118,-1.2132,-1.2148,-1.2153,-1.2168,-1.2178,-1.2194,-1.2201,-1.2222,-1.2226,-1.2231,-1.2232,-1.223,-1.223,-1.2236,-1.2235,-1.2235,-1.2235,-1.2235,-1.2235,0,-1.2019,-1.2032,-1.2058,-1.2079,-1.2085,-1.21,-1.2117,-1.2131,-1.214,-1.2161,-1.2166,-1.218,-1.2199,-1.2209,-1.2232,-1.2236,-1.226,-1.226,-1.2254,-1.2255,-1.2266,-1.2265,-1.2302,-1.2307,-1.228,-1.228,-1.228,0,-1.2035,-1.2051,-1.2073,-1.2085,-1.2096,-1.2114,-1.2126,-1.2137,-1.2149,-1.2169,-1.218,-1.22,-1.2216,-1.2245,-1.2257,-1.2274,-1.2275,-1.2287,-1.2278,-1.2275,-1.2275,-1.2274,-1.2276,-1.2289,-1.2289,-1.2289,-1.2289,0,-1.2061,-1.2066,-1.2085,-1.2105,-1.212,-1.2136,-1.2151,-1.216,-1.2173,-1.2186,-1.2206,-1.2219,-1.2243,-1.2261,-1.228,-1.2289,-1.2291,-1.2292,-1.2296,-1.2294,-1.229,-1.2292,-1.2259,-1.2291,-1.2291,-1.2291,-1.2291,-1.2291,-1.2078,-1.2092,-1.211,-1.213,-1.2143,-1.2158,-1.2172,-1.2183,-1.22,-1.2221,-1.2226,-1.2247,-1.2262,-1.2287,-1.2297,-1.2313,-1.231,-1.2315,-1.2317,-1.2318,-1.2318,-1.2287,-1.2316,-1.2316,-1.2316,-1.2316,-1.2316,0,-1.2104,-1.2116,-1.2134,-1.2157,-1.2172,-1.2174,-1.2191,-1.2203,-1.2222,-1.2237,-1.2253,-1.2275,-1.2293,-1.2306,-1.2324,-1.2334,-1.2335,-1.2338,-1.2338,-1.234,-1.232,-1.2315,-1.2337,-1.2337,-1.2337,-1.2337,-1.2337,-1.2337,-1.212,-1.2143,-1.2151,-1.2181,-1.2192,-1.2213,-1.2223,-1.2236,-1.2248,-1.2273,-1.2289,-1.2297,-1.2311,-1.233,-1.2346,-1.235,-1.2356,-1.2359,-1.2362,-1.2343,-1.2341,-1.2339,-1.2334,-1.236,-1.236,-1.2381,-1.2381,-1.2381]},{"header":{"parameterUnit":"m.s-1","parameterCategory":1,"la1":30.2991,"la2":30.254,"lo1":-89.0895,"lo2":-89.0444,"dx":0.0017,"dy":0.0017,"nx":28,"ny":28,"refTime":"2022-11-28T15:00:00:Z","depth":0,"parameterNumber":3,"parameterNumberName":"V-component_of_WINDS"},"data":[0,0,0,0,0,0,0,0,0,0,0,0,0,0,0,0,0,0,0,0,0,0,0,0,0,0,0,0,0,0,0,0,0,0,0,0,0,0,0,0,0,0,0,0,0,0,0,0,0,0,0,0,0,0,0,0,0,0,-0.0158,-0.016,0,-0.0278,-0.0279,-0.0281,-0.0299,-0.0298,-0.0297,-0.0296,-0.0424,-0.0429,-0.0433,0,0,0,0,0,0,0,0,0,0,0,0,0,0.0049,0.0045,-0.0158,-0.016,-0.0161,-0.0278,-0.028,-0.0281,-0.03,-0.0298,-0.0297,-0.0296,-0.0423,-0.0428,-0.0433,0,0,0,0,0,0,0,0,0,0,0,0,0,-0.0053,0.0044,-0.0158,-0.0184,-0.0188,-0.0278,-0.028,-0.0282,-0.03,-0.0298,-0.0297,-0.0295,-0.0421,-0.0427,-0.0434,-0.0507,0,0,-0.0454,-0.0457,0,0,0,0,0,0,0,0,-0.0047,-0.0061,-0.0179,-0.0183,-0.0187,-0.0272,-0.0253,-0.0357,-0.03,-0.0258,-0.0296,-0.0294,-0.0375,-0.0386,-0.0412,-0.0513,-0.0519,-0.0455,-0.0459,-0.0462,-0.0464,0,0,0,0,0,0,0,-0.004,-0.0056,-0.0206,-0.0181,-0.0186,-0.0192,-0.0205,-0.0273,-0.0324,-0.0261,-0.0263,-0.0276,-0.0377,-0.0405,-0.0415,-0.0521,-0.0455,-0.0461,-0.0465,-0.0467,-0.069,-0.0692,0,0,0,0,0,0,-0.0028,-0.005,-0.0202,-0.0209,-0.0112,-0.0197,-0.0211,-0.0246,-0.0323,-0.0334,-0.0278,-0.0277,-0.0395,-0.0407,-0.0419,-0.0512,-0.0462,-0.0468,-0.0472,-0.0689,-0.0691,-0.0693,0,0,0,0,0,0,-0.0023,-0.0041,-0.0197,-0.013,-0.015,-0.0202,-0.0242,-0.025,-0.0278,-0.0336,-0.0346,-0.0297,-0.0394,-0.041,-0.0485,-0.0517,-0.0471,-0.0477,-0.0686,-0.0689,-0.0692,-0.0697,0,0,0,0,0,0,-0.0017,-0.0039,-0.0066,-0.013,-0.0154,-0.026,-0.0244,-0.0253,-0.0289,-0.0289,-0.0356,-0.0366,-0.0394,-0.0475,-0.0492,-0.0525,-0.0482,-0.0684,-0.0688,-0.0691,-0.0694,-0.07,-0.0704,0,0,0,0,0,-0.001,-0.0064,-0.0068,-0.0086,-0.0189,-0.0261,-0.0275,-0.0304,-0.0291,-0.032,-0.0357,-0.0364,-0.051,-0.0483,-0.0502,-0.0537,-0.0682,-0.0687,-0.0691,-0.0692,-0.0699,-0.0704,0,0,0,0,0,0,-0.0004,-0.0073,-0.0078,-0.0154,-0.0201,-0.0264,-0.0302,-0.031,-0.0364,-0.0362,-0.0398,-0.0413,-0.0487,-0.0519,-0.0488,-0.0613,-0.0595,-0.0604,-0.059,-0.0597,-0.0601,-0.0593,-0.0488,0,0,0,0,0,-0.0011,-0.0063,-0.0121,-0.0183,-0.0206,-0.0249,-0.0282,-0.03,-0.0352,-0.0373,-0.0416,-0.0467,-0.0525,-0.0562,-0.0618,-0.0698,-0.0715,-0.0732,-0.0737,-0.0741,-0.0749,-0.0796,-0.0805,-0.0708,-0.0708,-0.0707,0,0,-0.0028,-0.0072,-0.0102,-0.0183,-0.0222,-0.0276,-0.0266,-0.0324,-0.0366,-0.0382,-0.0456,-0.0489,-0.0549,-0.0627,-0.0664,-0.0657,-0.0779,-0.0747,-0.0749,-0.0755,-0.0801,-0.0811,-0.0819,-0.0711,-0.071,-0.071,0,0,-0.0086,-0.0123,-0.018,-0.0219,-0.0277,-0.0306,-0.0319,-0.0381,-0.0403,-0.0477,-0.0491,-0.0541,-0.0639,-0.0682,-0.0716,-0.079,-0.0799,-0.0807,-0.0835,-0.088,-0.0888,-0.0895,-0.0924,-0.0934,-0.0814,-0.0814,-0.0814,0,-0.01,-0.0181,-0.0208,-0.0266,-0.0302,-0.0316,-0.0375,-0.0412,-0.0487,-0.0512,-0.0502,-0.0626,-0.0667,-0.0757,-0.0774,-0.0801,-0.0819,-0.0801,-0.0884,-0.0892,-0.0899,-0.0927,-0.0937,-0.0815,-0.0815,-0.0815,-0.0815,0,-0.0196,-0.0253,-0.0291,-0.0361,-0.0401,-0.0459,-0.0497,-0.0534,-0.0549,-0.0579,-0.0655,-0.0705,-0.0772,-0.0794,-0.0809,-0.0886,-0.088,-0.0876,-0.086,-0.0908,-0.0935,-0.0946,-0.0816,-0.0816,-0.0815,-0.0815,0,0,-0.0257,-0.034,-0.0354,-0.0387,-0.0452,-0.0497,-0.0556,-0.062,-0.0653,-0.0703,-0.0756,-0.0838,-0.0835,-0.0874,-0.0894,-0.0933,-0.0992,-0.0926,-0.0928,-0.0939,-0.1083,-0.1087,-0.1099,-0.0997,-0.0999,-0.1001,-0.1079,0,-0.0325,-0.0429,-0.0455,-0.0545,-0.0599,-0.0613,-0.0665,-0.0712,-0.0741,-0.0793,-0.0826,-0.0885,-0.0875,-0.0899,-0.0938,-0.0976,-0.1022,-0.0971,-0.1049,-0.1052,-0.1036,-0.1113,-0.1118,-0.1189,-0.1089,-0.1091,-0.1093,0,-0.0419,-0.047,-0.0565,-0.0624,-0.0648,-0.0693,-0.0755,-0.0803,-0.0857,-0.0876,-0.0919,-0.0935,-0.0999,-0.0976,-0.1067,-0.1032,-0.1065,-0.1088,-0.1092,-0.1103,-0.1077,-0.1129,-0.1212,-0.1224,-0.1109,-0.1108,-0.1107,0,-0.0457,-0.0549,-0.0618,-0.0645,-0.0715,-0.0748,-0.0779,-0.0831,-0.0868,-0.0922,-0.0947,-0.1008,-0.1042,-0.109,-0.1123,-0.1103,-0.1212,-0.1191,-0.1232,-0.1231,-0.1257,-0.1255,-0.135,-0.1273,-0.1273,-0.1273,-0.1272,0,-0.0532,-0.059,-0.0636,-0.0679,-0.0746,-0.0775,-0.0841,-0.0872,-0.0918,-0.0969,-0.0985,-0.1033,-0.1072,-0.1126,-0.1152,-0.1225,-0.124,-0.1259,-0.1266,-0.1259,-0.1257,-0.1284,-0.1281,-0.1276,-0.1275,-0.1274,-0.1274,0,-0.0586,-0.0619,-0.0696,-0.0755,-0.0772,-0.0818,-0.087,-0.0914,-0.0943,-0.1007,-0.1024,-0.1071,-0.1135,-0.1172,-0.1253,-0.1271,-0.1352,-0.1355,-0.1334,-0.1338,-0.1377,-0.1374,-0.1494,-0.1513,-0.1421,-0.1422,-0.1423,0,-0.0633,-0.0678,-0.0742,-0.0776,-0.0808,-0.0863,-0.09,-0.0931,-0.097,-0.1035,-0.1071,-0.1136,-0.1189,-0.1291,-0.1334,-0.1397,-0.1403,-0.1441,-0.1413,-0.1406,-0.1408,-0.1406,-0.1411,-0.1447,-0.1448,-0.1448,-0.1449,0,-0.0714,-0.0728,-0.0781,-0.084,-0.0884,-0.0932,-0.098,-0.1007,-0.1047,-0.109,-0.1155,-0.1196,-0.1278,-0.1343,-0.1409,-0.1443,-0.1454,-0.1457,-0.147,-0.1466,-0.1452,-0.1463,-0.135,-0.1455,-0.1454,-0.1454,-0.1454,-0.1453,-0.0769,-0.081,-0.0861,-0.092,-0.0959,-0.1003,-0.1047,-0.1081,-0.1135,-0.1204,-0.1219,-0.1288,-0.1342,-0.1431,-0.1467,-0.1523,-0.1517,-0.1535,-0.154,-0.1545,-0.1548,-0.1441,-0.1535,-0.1535,-0.1535,-0.1534,-0.1534,0,-0.0853,-0.0886,-0.0939,-0.1005,-0.1052,-0.1054,-0.1108,-0.1148,-0.1207,-0.1256,-0.1308,-0.1383,-0.1447,-0.1493,-0.1559,-0.1595,-0.1601,-0.1611,-0.161,-0.1619,-0.1549,-0.1532,-0.1605,-0.1605,-0.1605,-0.1604,-0.1604,-0.1604,-0.0902,-0.0973,-0.0993,-0.1084,-0.1117,-0.1184,-0.1214,-0.1256,-0.1295,-0.1378,-0.143,-0.1459,-0.1508,-0.1577,-0.1636,-0.1648,-0.1673,-0.1682,-0.1696,-0.163,-0.1623,-0.1616,-0.1601,-0.1687,-0.1687,-0.1762,-0.1762,-0.1763]}]]